period_start,C,m1,H,J0,J1,J2,J3,J4,J5,JA,JB,JC,JD,JJ,JK,JN,#
2016-04-12 00:01:15,0.09,1.96,0.00,21.96,26.78,29.65,14.60,49.73,1016.15,2038.00,2720.63,2641.70,2972.46,599.95,597.87,21.59,0000 0000 0000 0000 000000
2016-04-12 00:06:16,0.09,1.97,0.00,22.02,26.81,29.67,14.75,49.83,1016.15,2038.00,2719.02,2640.59,2971.22,600.08,597.68,21.64,0000 0000 0000 0000 000000
2016-04-12 00:11:18,0.09,1.97,0.00,22.06,26.84,29.68,14.61,49.72,1016.20,2037.98,2717.64,2639.51,2969.93,599.97,597.65,21.69,0000 0000 0000 0000 000000
2016-04-12 00:16:18,0.09,1.97,0.00,22.11,26.87,29.70,14.56,49.87,1016.27,2037.96,2716.17,2638.40,2968.63,600.03,597.67,21.74,0000 0000 0000 0000 000000
2016-04-12 00:21:20,0.06,1.98,0.00,22.14,26.91,29.74,14.67,50.02,1016.35,2037.81,2714.57,2637.26,2967.41,600.34,597.93,21.79,0000 0000 0000 0000 000000
2016-04-12 00:26:21,0.08,1.98,0.00,22.19,26.94,29.77,14.55,50.17,1016.46,2037.50,2712.76,2635.95,2965.85,599.94,597.54,21.84,0000 0000 0000 0000 000000
2016-04-12 00:31:22,0.09,1.99,0.00,22.24,26.97,29.80,14.63,50.16,1016.50,2037.08,2710.66,2634.46,2964.16,599.82,597.34,21.89,0000 0000 0000 0000 000000
2016-04-12 00:36:23,0.12,1.99,0.00,22.29,27.01,29.83,14.59,50.13,1016.48,2037.00,2708.50,2632.95,2962.50,600.05,597.44,21.94,0000 0000 0000 0000 000000
2016-04-12 00:41:25,0.15,2.00,0.00,22.33,27.04,29.85,14.56,50.08,1016.55,2037.00,2705.83,2631.20,2960.55,600.08,597.41,21.99,0000 0000 0000 0000 000000
2016-04-12 00:46:26,0.10,2.01,0.00,22.37,27.08,29.88,14.58,50.03,1016.58,2036.99,2704.02,2629.80,2958.96,600.27,597.46,22.04,0000 0000 0000 0000 000000
2016-04-12 00:51:27,0.15,2.01,0.00,22.43,27.11,29.93,14.61,50.06,1016.61,2036.97,2701.54,2628.19,2957.11,599.94,597.13,22.09,0000 0000 0000 0000 000000
2016-04-12 00:56:29,0.14,2.02,0.00,22.49,27.14,29.96,14.65,50.03,1016.62,2036.71,2698.59,2626.12,2954.77,600.05,597.10,22.14,0000 0000 0000 0000 000000
2016-04-12 01:01:30,0.09,2.03,0.00,22.55,27.18,30.00,14.65,50.06,1016.62,2036.16,2695.98,2624.39,2952.81,599.89,596.81,22.19,0000 0000 0000 0000 000000
2016-04-12 01:06:31,0.13,2.03,0.00,22.60,27.21,30.03,14.62,49.93,1016.62,2036.03,2693.64,2622.82,2950.95,600.00,596.93,22.24,0000 0000 0000 0000 000000
2016-04-12 01:11:33,0.24,2.04,0.00,22.64,27.25,30.07,14.58,50.01,1016.62,2036.00,2689.94,2620.34,2947.97,599.82,596.67,22.29,0000 0000 0000 0000 000000
2016-04-12 01:16:34,0.25,2.06,0.00,22.70,27.28,30.12,14.58,49.70,1016.62,2036.00,2685.76,2617.24,2944.50,599.86,596.49,22.34,0000 0000 0000 0000 000000
2016-04-12 01:21:35,0.31,2.07,0.00,22.75,27.32,30.15,14.57,49.92,1016.62,2035.98,2681.09,2613.76,2940.59,600.21,596.70,22.39,0000 0000 0000 0000 000000
2016-04-12 01:26:36,0.15,2.08,0.00,22.80,27.36,30.19,14.58,49.77,1016.62,2035.87,2677.70,2611.35,2937.85,599.78,596.40,22.44,0000 0000 0000 0000 000000
2016-04-12 01:31:38,0.11,2.09,0.00,22.85,27.39,30.24,14.54,49.75,1016.62,2035.39,2675.01,2609.47,2935.74,600.07,596.41,22.49,0000 0000 0000 0000 000000
2016-04-12 01:36:39,0.21,2.10,0.00,22.90,27.43,30.27,14.63,49.83,1016.62,2035.03,2671.56,2606.93,2932.86,600.16,596.61,22.54,0000 0000 0000 0000 000000
2016-04-12 01:41:41,0.25,2.11,0.00,22.95,27.47,30.31,14.61,49.83,1016.63,2035.00,2667.58,2604.02,2929.57,599.94,596.10,22.59,0000 0000 0000 0000 000000
2016-04-12 01:46:42,0.19,2.12,0.00,23.00,27.51,30.36,14.59,49.78,1016.64,2035.00,2664.14,2601.42,2926.63,600.08,596.16,22.64,0000 0000 0000 0000 000000
2016-04-12 01:51:44,0.11,2.13,0.00,23.04,27.54,30.39,14.57,49.82,1016.79,2034.95,2662.28,2599.94,2924.89,600.06,596.12,22.69,0000 0000 0000 0000 000000
2016-04-12 01:56:45,0.08,2.13,0.00,23.10,27.58,30.43,14.50,49.63,1016.91,2034.64,2660.34,2598.54,2923.32,599.71,595.71,22.74,0000 0000 0000 0000 000000
2016-04-12 02:01:47,0.14,2.14,0.00,23.15,27.62,30.48,14.55,49.77,1017.00,2034.17,2657.46,2596.52,2921.07,600.27,596.32,22.79,0000 0000 0000 0000 000000
2016-04-12 02:06:48,0.18,2.15,0.00,23.21,27.66,30.51,14.50,49.58,1017.01,2034.03,2654.35,2594.25,2918.51,599.96,595.84,22.84,0000 0000 0000 0000 000000
2016-04-12 02:11:50,0.20,2.16,0.00,23.27,27.71,30.57,14.52,49.70,1017.05,2034.00,2651.34,2592.01,2916.00,599.83,595.55,22.89,0000 0000 0000 0000 000000
2016-04-12 02:16:51,0.16,2.17,0.00,23.32,27.75,30.61,14.54,49.81,1017.07,2034.00,2648.49,2589.92,2913.70,599.80,595.33,22.94,0000 0000 0000 0000 000000
2016-04-12 02:21:52,0.14,2.17,0.00,23.37,27.79,30.66,14.57,49.83,1017.10,2033.94,2646.04,2588.13,2911.64,600.17,595.74,22.99,0000 0000 0000 0000 000000
2016-04-12 02:26:54,0.10,2.18,0.00,23.44,27.84,30.70,14.53,49.70,1017.09,2033.60,2643.71,2586.38,2909.62,600.27,595.70,23.04,0000 0000 0000 0000 000000
2016-04-12 02:31:55,0.13,2.19,0.00,23.49,27.89,30.75,14.52,49.82,1017.09,2033.12,2641.07,2584.36,2907.38,600.06,595.54,23.09,0000 0000 0000 0000 000000
2016-04-12 02:36:56,0.15,2.19,0.00,23.53,27.93,30.78,14.49,49.70,1017.10,2033.01,2638.58,2582.48,2905.24,599.60,594.86,23.14,0000 0000 0000 0000 000000
2016-04-12 02:41:58,0.26,2.20,0.00,23.59,27.98,30.85,14.49,49.77,1017.10,2033.00,2634.96,2579.90,2902.34,600.01,595.14,23.19,0000 0000 0000 0000 000000
2016-04-12 02:46:59,0.45,2.22,0.00,23.64,28.03,30.88,14.51,49.85,1017.11,2032.94,2628.15,2574.93,2896.86,600.05,595.04,23.24,0000 0000 0000 0000 000000
2016-04-12 02:52:00,0.26,2.24,0.00,23.69,28.07,30.92,14.55,49.71,1017.11,2032.49,2622.67,2570.75,2892.18,600.39,595.34,23.29,0000 0000 0000 0000 000000
2016-04-12 02:57:02,0.27,2.25,0.00,23.74,28.12,30.97,14.53,49.67,1017.11,2032.04,2618.19,2567.44,2888.50,600.03,594.93,23.34,0000 0000 0000 0000 000000
2016-04-12 03:02:03,0.31,2.27,0.00,23.79,28.16,31.04,14.44,49.60,1017.11,2032.00,2613.13,2563.85,2884.58,600.09,594.83,23.39,0000 0000 0000 0000 000000
2016-04-12 03:07:04,0.18,2.28,0.00,23.84,28.20,31.08,14.45,49.46,1017.11,2032.00,2609.73,2561.49,2881.95,599.85,594.48,23.44,0000 0000 0000 0000 000000
2016-04-12 03:12:05,0.18,2.29,0.00,23.91,28.24,31.12,14.49,49.58,1017.11,2031.97,2606.81,2559.50,2879.66,600.10,594.70,23.49,0000 0000 0000 0000 000000
2016-04-12 03:17:07,0.18,2.30,0.00,23.94,28.28,31.18,14.47,49.53,1017.11,2031.82,2603.74,2557.35,2877.23,599.79,594.22,23.54,0000 0000 0000 0000 000000
2016-04-12 03:22:08,0.22,2.31,0.00,23.99,28.32,31.23,14.57,49.78,1017.11,2031.26,2599.75,2554.48,2873.96,600.01,594.34,23.59,0000 0000 0000 0000 000000
2016-04-12 03:27:09,0.24,2.32,0.00,24.03,28.37,31.27,14.54,49.77,1017.13,2031.03,2595.59,2551.37,2870.55,600.20,594.45,23.64,0000 0000 0000 0000 000000
2016-04-12 03:32:11,0.24,2.33,0.00,24.08,28.41,31.33,14.52,49.70,1017.14,2031.00,2591.79,2548.61,2867.43,599.98,594.07,23.69,0000 0000 0000 0000 000000
2016-04-12 03:37:12,0.17,2.34,0.00,24.13,28.46,31.37,14.43,49.73,1017.14,2030.98,2588.86,2546.42,2864.92,599.94,594.06,23.74,0000 0000 0000 0000 000000
2016-04-12 03:42:13,0.12,2.35,0.00,24.18,28.50,31.41,14.42,49.53,1017.14,2030.54,2586.14,2544.41,2862.64,600.04,593.99,23.79,0000 0000 0000 0000 000000
2016-04-12 03:47:14,0.14,2.36,0.00,24.23,28.55,31.47,14.49,49.58,1017.24,2030.11,2583.39,2542.37,2860.33,599.78,593.78,23.84,0000 0000 0000 0000 000000
2016-04-12 03:52:16,0.23,2.37,0.00,24.29,28.59,31.49,14.47,49.55,1017.38,2030.00,2580.08,2539.86,2857.53,600.01,593.76,23.89,0000 0000 0000 0000 000000
2016-04-12 03:57:17,0.15,2.38,0.00,24.34,28.64,31.54,14.47,49.59,1017.52,2030.00,2577.53,2537.79,2855.27,599.90,593.84,23.94,0000 0000 0000 0000 000000
2016-04-12 04:02:19,0.12,2.38,0.00,24.39,28.69,31.59,14.44,49.61,1017.51,2029.98,2575.63,2536.49,2853.66,600.03,593.79,23.99,0000 0000 0000 0000 000000
2016-04-12 04:07:20,0.09,2.39,0.00,24.44,28.73,31.64,14.51,49.77,1017.59,2029.65,2573.46,2534.83,2851.86,600.04,593.80,24.04,0000 0000 0000 0000 000000
2016-04-12 04:12:21,0.07,2.39,0.00,24.49,28.78,31.69,14.50,49.92,1017.59,2029.09,2571.51,2533.36,2850.13,600.30,593.86,24.09,0000 0000 0000 0000 000000
2016-04-12 04:17:23,0.13,2.40,0.00,24.52,28.82,31.73,14.39,49.85,1017.59,2029.00,2569.48,2531.82,2848.47,599.83,593.48,24.14,0000 0000 0000 0000 000000
2016-04-12 04:22:24,0.12,2.40,0.00,24.57,28.87,31.79,14.52,49.73,1017.59,2029.00,2567.45,2530.44,2846.76,600.31,593.85,24.19,0000 0000 0000 0000 000000
2016-04-12 04:27:26,0.10,2.41,0.00,24.63,28.91,31.82,14.42,49.55,1017.59,2028.94,2565.68,2529.12,2845.32,599.91,593.38,24.24,0000 0000 0000 0000 000000
2016-04-12 04:32:27,0.08,2.42,0.00,24.66,28.96,31.87,14.55,49.70,1017.59,2028.68,2564.02,2527.85,2843.80,600.19,593.42,24.29,0000 0000 0000 0000 000000
2016-04-12 04:37:28,0.07,2.42,0.00,24.71,29.01,31.91,14.42,49.60,1017.59,2028.14,2562.38,2526.52,2842.34,600.11,593.29,24.34,0000 0000 0000 0000 000000
2016-04-12 04:42:29,0.11,2.42,0.00,24.74,29.06,31.95,14.46,49.72,1017.59,2028.00,2560.68,2525.22,2840.84,600.10,593.23,24.39,0000 0000 0000 0000 000000
2016-04-12 04:47:31,0.11,2.43,0.00,24.79,29.11,31.97,14.48,49.74,1017.59,2028.00,2559.08,2523.87,2839.39,599.89,592.95,24.44,0000 0000 0000 0000 000000
2016-04-12 04:52:32,0.11,2.44,0.00,24.82,29.16,32.01,14.50,49.72,1017.59,2027.94,2557.48,2522.53,2837.79,600.00,592.99,24.49,0000 0000 0000 0000 000000
2016-04-12 04:57:33,0.07,2.44,0.00,24.85,29.21,32.06,14.50,49.71,1017.59,2027.73,2555.86,2521.33,2836.45,600.06,592.97,24.54,0000 0000 0000 0000 000000
2016-04-12 05:02:35,0.04,2.44,0.00,24.87,29.25,32.10,14.50,49.61,1017.59,2027.15,2554.34,2520.24,2835.06,599.96,592.81,24.59,0000 0000 0000 0000 000000
2016-04-12 05:07:36,0.10,2.45,0.00,24.91,29.30,32.13,14.50,49.38,1017.59,2027.01,2552.80,2519.02,2833.72,600.35,593.23,24.65,0000 0000 0000 0000 000000
2016-04-12 05:12:37,0.09,2.45,0.00,24.96,29.34,32.18,14.42,49.53,1017.60,2026.99,2551.43,2517.85,2832.48,599.86,592.56,24.70,0000 0000 0000 0000 000000
2016-04-12 05:17:39,0.06,2.46,0.00,25.01,29.38,32.23,14.41,49.47,1017.59,2026.90,2550.05,2516.92,2831.38,599.57,592.21,24.75,0000 0000 0000 0000 000000
2016-04-12 05:22:40,0.02,2.46,0.00,25.04,29.42,32.26,14.46,49.49,1017.60,2026.32,2548.72,2515.94,2830.27,600.19,592.62,24.80,0000 0000 0000 0000 000000
2016-04-12 05:27:41,0.08,2.46,0.00,25.07,29.46,32.31,14.43,49.54,1017.61,2026.03,2547.43,2514.90,2829.06,600.06,592.47,24.85,0000 0000 0000 0000 000000
2016-04-12 05:32:43,0.07,2.47,0.00,25.11,29.50,32.34,14.47,49.59,1017.60,2026.00,2546.14,2513.93,2827.99,599.86,592.25,24.90,0000 0000 0000 0000 000000
2016-04-12 05:37:44,0.09,2.47,0.00,25.14,29.54,32.38,14.46,49.58,1017.60,2025.99,2544.80,2512.96,2826.88,599.92,592.24,24.95,0000 0000 0000 0000 000000
2016-04-12 05:42:45,0.07,2.47,0.00,25.18,29.58,32.42,14.42,49.57,1017.59,2025.92,2543.61,2512.06,2825.74,599.96,592.11,25.00,0000 0000 0000 0000 000000
2016-04-12 05:47:46,0.05,2.48,0.00,25.21,29.61,32.47,14.47,49.98,1017.61,2025.67,2542.38,2511.14,2824.74,599.81,591.91,25.05,0000 0000 0000 0000 000000
2016-04-12 05:52:47,0.04,2.48,0.00,25.25,29.65,32.52,14.48,49.99,1017.61,2025.12,2541.03,2510.13,2823.65,600.41,592.56,25.10,0000 0000 0000 0000 000000
2016-04-12 05:57:48,0.08,2.48,0.00,25.27,29.68,32.56,14.50,49.98,1017.60,2025.01,2539.75,2509.15,2822.60,600.13,592.23,25.15,0000 0000 0000 0000 000000
2016-04-12 06:02:49,0.09,2.49,0.00,25.30,29.72,32.58,14.45,49.84,1017.61,2025.00,2538.43,2508.16,2821.40,599.80,591.80,25.20,0000 0000 0000 0000 000000
2016-04-12 06:07:51,0.07,2.49,0.00,25.34,29.75,32.62,14.56,49.97,1017.61,2024.97,2537.12,2507.21,2820.30,600.23,592.13,25.25,0000 0000 0000 0000 000000
2016-04-12 06:12:52,0.08,2.50,0.00,25.35,29.78,32.65,14.46,49.73,1017.63,2024.87,2535.84,2506.27,2819.25,600.08,591.98,25.30,0000 0000 0000 0000 000000
2016-04-12 06:17:53,0.03,2.50,0.00,25.39,29.81,32.68,14.42,49.75,1017.64,2024.36,2534.63,2505.28,2818.15,599.78,591.70,25.35,0000 0000 0000 0000 000000
2016-04-12 06:22:54,0.05,2.50,0.00,25.42,29.84,32.72,14.49,49.70,1017.63,2024.10,2533.30,2504.39,2817.07,599.97,591.80,25.40,0000 0000 0000 0000 000000
2016-04-12 06:27:55,0.08,2.50,0.00,25.43,29.86,32.75,14.41,49.58,1017.66,2024.03,2531.89,2503.42,2815.97,599.82,591.60,25.45,0000 0000 0000 0000 000000
2016-04-12 06:32:57,0.10,2.51,0.00,25.46,29.89,32.78,14.44,49.67,1017.66,2024.00,2530.42,2502.30,2814.79,600.14,591.94,25.50,0000 0000 0000 0000 000000
2016-04-12 06:37:58,0.10,2.51,0.00,25.48,29.92,32.81,14.52,49.58,1017.63,2024.00,2528.80,2501.14,2813.52,600.19,591.85,25.55,0000 0000 0000 0000 000000
2016-04-12 06:42:59,0.09,2.52,0.00,25.51,29.95,32.86,14.45,49.28,1017.63,2023.98,2527.32,2499.99,2812.21,600.25,591.79,25.60,0000 0000 0000 0000 000000
2016-04-12 06:48:00,0.11,2.52,0.00,25.52,29.97,32.89,14.52,49.70,1017.71,2023.96,2525.57,2498.89,2810.88,600.05,591.64,25.65,0000 0000 0000 0000 000000
2016-04-12 06:53:01,0.11,2.53,0.00,25.54,29.99,32.91,14.42,49.41,1017.73,2023.90,2523.96,2497.71,2809.61,600.00,591.63,25.70,0000 0000 0000 0000 000000
2016-04-12 06:58:02,0.04,2.53,0.00,25.56,30.01,32.94,14.42,49.38,1017.97,2023.52,2522.47,2496.62,2808.35,600.01,591.70,25.75,0000 0000 0000 0000 000000
2016-04-12 07:03:04,0.06,2.54,0.00,25.58,30.03,32.97,14.48,49.58,1018.00,2023.09,2521.01,2495.60,2807.16,600.02,591.68,25.80,0000 0000 0000 0000 000000
2016-04-12 07:08:05,0.07,2.54,0.00,25.59,30.05,33.00,14.53,49.50,1018.04,2023.04,2519.64,2494.76,2806.00,600.28,592.05,25.85,0000 0000 0000 0000 000000
2016-04-12 07:13:06,0.07,2.54,0.00,25.60,30.07,33.02,14.44,49.42,1018.05,2023.01,2518.50,2493.90,2804.99,599.89,591.53,25.90,0000 0000 0000 0000 000000
2016-04-12 07:18:07,0.08,2.55,0.00,25.63,30.09,33.04,14.46,49.14,1018.07,2023.00,2517.25,2493.00,2803.97,600.27,591.89,25.95,0000 0000 0000 0000 000000
2016-04-12 07:23:08,0.08,2.55,0.00,25.66,30.11,33.07,14.46,49.37,1018.08,2023.00,2516.01,2492.08,2802.97,600.16,591.75,26.00,0000 0000 0000 0000 000000
2016-04-12 07:28:09,0.09,2.56,0.00,25.66,30.13,33.09,14.39,49.34,1018.08,2023.00,2514.72,2491.20,2801.95,599.81,591.38,26.05,0000 0000 0000 0000 000000
2016-04-12 07:33:11,0.08,2.56,0.00,25.68,30.15,33.11,14.54,49.57,1018.08,2022.97,2513.45,2490.27,2800.80,599.91,591.52,26.10,0000 0000 0000 0000 000000
2016-04-12 07:38:12,0.07,2.56,0.00,25.70,30.17,33.14,14.45,49.27,1018.09,2022.94,2512.17,2489.29,2799.85,600.41,591.99,26.15,0000 0000 0000 0000 000000
2016-04-12 07:43:13,0.07,2.57,0.00,25.71,30.19,33.16,14.43,49.31,1018.09,2022.84,2510.95,2488.49,2798.80,600.18,591.62,26.20,0000 0000 0000 0000 000000
2016-04-12 07:48:14,0.06,2.57,0.00,25.72,30.21,33.17,14.45,49.16,1018.09,2022.62,2509.66,2487.65,2797.81,600.57,591.97,26.25,0000 0000 0000 0000 000000
2016-04-12 07:53:16,0.05,2.57,0.00,25.73,30.23,33.19,14.44,49.24,1018.10,2022.26,2508.47,2486.65,2796.72,599.96,591.47,26.30,0000 0000 0000 0000 000000
2016-04-12 07:58:17,0.07,2.58,0.00,25.73,30.25,33.20,14.47,49.27,1018.11,2022.10,2507.12,2485.72,2795.70,600.33,591.84,26.35,0000 0000 0000 0000 000000
2016-04-12 08:03:19,0.09,2.58,0.00,25.75,30.27,33.22,14.47,49.30,1018.13,2022.00,2505.72,2484.64,2794.51,599.96,591.39,26.40,0000 0000 0000 0000 000000
2016-04-12 08:08:20,0.07,2.59,0.00,25.76,30.29,33.24,14.41,48.93,1018.23,2022.00,2504.56,2483.75,2793.49,600.44,591.87,26.45,0000 0000 0000 0000 000000
2016-04-12 08:13:22,0.07,2.59,0.00,25.76,30.30,33.26,14.42,49.27,1018.48,2022.00,2503.35,2482.89,2792.43,599.66,591.37,26.50,0000 0000 0000 0000 000000
2016-04-12 08:18:23,0.08,2.59,0.00,25.77,30.32,33.29,14.52,49.34,1018.55,2022.00,2502.06,2481.98,2791.46,600.09,591.67,26.55,0000 0000 0000 0000 000000
2016-04-12 08:23:25,0.09,2.60,0.00,25.77,30.34,33.29,14.55,49.47,1018.57,2022.00,2500.81,2481.09,2790.39,600.62,592.17,26.60,0000 0000 0000 0000 000000
2016-04-12 08:28:26,0.08,2.60,0.00,25.77,30.35,33.31,14.44,49.11,1018.57,2021.99,2499.74,2480.28,2789.47,599.95,591.59,26.65,0000 0000 0000 0000 000000
2016-04-12 08:33:27,0.08,2.61,0.00,25.80,30.37,33.33,14.38,48.92,1018.57,2021.95,2498.46,2479.36,2788.39,599.83,591.40,26.70,0000 0000 0000 0000 000000
2016-04-12 08:38:28,0.08,2.61,0.00,25.80,30.39,33.35,14.42,49.17,1018.57,2021.93,2497.20,2478.44,2787.42,600.04,591.70,26.75,0000 0000 0000 0000 000000
2016-04-12 08:43:30,0.09,2.62,0.00,25.82,30.40,33.35,14.44,48.98,1018.57,2021.85,2495.71,2477.33,2786.06,599.73,591.49,26.80,0000 0000 0000 0000 000000
2016-04-12 08:48:31,0.09,2.62,0.00,25.80,30.41,33.37,14.43,49.04,1018.57,2021.73,2494.14,2476.06,2784.67,600.05,591.58,26.85,0000 0000 0000 0000 000000
2016-04-12 08:53:32,0.06,2.62,0.00,25.81,30.42,33.39,14.47,49.27,1018.57,2021.37,2492.62,2474.93,2783.49,600.00,591.54,26.90,0000 0000 0000 0000 000000
2016-04-12 08:58:33,0.07,2.63,0.00,25.82,30.42,33.39,14.44,49.20,1018.57,2021.14,2491.14,2473.92,2782.28,599.88,591.45,26.95,0000 0000 0000 0000 000000
2016-04-12 09:03:35,0.08,2.63,0.00,25.81,30.44,33.40,14.51,49.02,1018.57,2021.08,2489.78,2472.96,2781.14,600.02,591.61,27.00,0000 0000 0000 0000 000000
2016-04-12 09:08:36,0.10,2.64,0.00,25.81,30.45,33.41,14.48,49.24,1018.57,2021.02,2488.37,2471.87,2779.83,600.42,591.96,27.05,0000 0000 0000 0000 000000
2016-04-12 09:13:38,0.11,2.64,0.00,25.80,30.45,33.41,14.41,49.01,1018.57,2021.00,2486.91,2470.69,2778.51,599.90,591.49,27.10,0000 0000 0000 0000 000000
2016-04-12 09:18:39,0.16,2.65,0.00,25.79,30.45,33.42,14.48,49.02,1018.57,2021.00,2484.64,2469.12,2776.67,600.00,591.64,27.15,0000 0000 0000 0000 000000
2016-04-12 09:23:40,0.29,2.66,0.00,25.80,30.45,33.44,14.42,48.77,1018.59,2021.00,2480.88,2466.40,2773.68,600.12,591.72,27.20,0000 0000 0000 0000 000000
2016-04-12 09:28:41,0.21,2.68,0.00,25.79,30.45,33.44,14.41,48.88,1018.58,2021.00,2477.28,2463.93,2771.00,600.05,591.88,27.25,0000 0000 0000 0000 000000
2016-04-12 09:33:43,0.11,2.68,0.00,25.78,30.45,33.45,14.40,49.05,1018.58,2021.00,2475.27,2462.53,2769.49,599.63,591.27,27.30,0000 0000 0000 0000 000000
2016-04-12 09:38:44,0.10,2.69,0.00,25.77,30.45,33.46,14.50,48.98,1018.58,2021.00,2473.66,2461.40,2768.23,600.26,591.85,27.35,0000 0000 0000 0000 000000
2016-04-12 09:43:46,0.11,2.69,0.00,25.76,30.45,33.46,14.46,48.88,1018.59,2021.00,2471.99,2460.21,2766.83,599.98,591.69,27.40,0000 0000 0000 0000 000000
2016-04-12 09:48:47,0.10,2.70,0.00,25.75,30.45,33.46,14.44,48.97,1018.75,2021.00,2470.49,2459.01,2765.52,600.16,591.95,27.45,0000 0000 0000 0000 000000
2016-04-12 09:53:48,0.11,2.70,0.00,25.75,30.46,33.45,14.42,48.83,1018.92,2021.00,2468.89,2457.84,2764.24,599.75,591.64,27.50,0000 0000 0000 0000 000000
2016-04-12 09:58:49,0.11,2.71,0.00,25.75,30.47,33.45,14.51,49.08,1018.98,2021.00,2467.35,2456.68,2762.89,600.16,592.08,27.55,0000 0000 0000 0000 000000
2016-04-12 10:03:50,0.10,2.71,0.00,25.74,30.47,33.46,14.53,49.38,1019.00,2021.00,2465.67,2455.62,2761.62,600.03,592.16,27.60,0000 0000 0000 0000 000000
2016-04-12 10:08:52,0.09,2.72,0.00,25.72,30.47,33.48,14.51,48.82,1018.87,2021.00,2464.31,2454.56,2760.50,600.00,592.06,27.65,0000 0000 0000 0000 000000
2016-04-12 10:13:53,0.09,2.72,0.00,25.72,30.47,33.46,14.43,48.90,1018.73,2021.00,2462.95,2453.60,2759.46,600.11,591.92,27.70,0000 0000 0000 0000 000000
2016-04-12 10:18:55,0.07,2.73,0.00,25.70,30.48,33.47,14.53,48.94,1018.89,2021.00,2461.79,2452.68,2758.29,600.01,591.86,27.75,0000 0000 0000 0000 000000
2016-04-12 10:23:56,0.11,2.73,0.00,25.68,30.48,33.45,14.46,48.88,1018.99,2021.00,2460.14,2451.55,2757.01,599.87,592.20,27.80,0000 0000 0000 0000 000000
2016-04-12 10:28:58,0.12,2.74,0.00,25.66,30.49,33.46,14.47,48.98,1019.00,2020.98,2458.46,2450.29,2755.58,600.18,592.29,27.85,0000 0000 0000 0000 000000
2016-04-12 10:33:59,0.13,2.75,0.00,25.65,30.48,33.47,14.49,48.90,1019.01,2020.99,2456.46,2448.88,2754.02,600.44,592.61,27.90,0000 0000 0000 0000 000000
2016-04-12 10:39:00,0.13,2.75,0.00,25.60,30.47,33.47,14.50,49.05,1019.06,2020.98,2454.74,2447.63,2752.60,599.94,592.09,27.95,0000 0000 0000 0000 000000
2016-04-12 10:44:01,0.10,2.76,0.00,25.56,30.47,33.46,14.51,49.13,1019.05,2020.98,2452.95,2446.49,2751.41,600.05,592.49,28.01,0000 0000 0000 0000 000000
2016-04-12 10:49:02,0.10,2.77,0.00,25.55,30.46,33.46,14.49,48.92,1018.99,2020.96,2451.33,2445.31,2750.10,600.14,592.50,28.06,0000 0000 0000 0000 000000
2016-04-12 10:54:03,0.11,2.77,0.00,25.53,30.45,33.45,14.54,49.08,1018.99,2020.97,2449.67,2444.12,2748.80,600.28,592.65,28.11,0000 0000 0000 0000 000000
2016-04-12 10:59:05,0.11,2.78,0.00,25.51,30.44,33.44,14.49,49.21,1018.98,2020.95,2448.05,2443.01,2747.52,599.75,592.25,28.16,0000 0000 0000 0000 000000
2016-04-12 11:04:06,0.10,2.78,0.00,25.52,30.42,33.45,14.52,49.17,1019.01,2020.99,2446.27,2441.93,2746.37,600.12,592.52,28.21,0000 0000 0000 0000 000000
2016-04-12 11:09:07,0.13,2.79,0.00,25.51,30.40,33.42,14.49,49.13,1019.05,2020.99,2444.48,2440.76,2745.09,600.28,592.72,28.26,0000 0000 0000 0000 000000
2016-04-12 11:14:08,0.11,2.79,0.00,25.47,30.39,33.43,14.50,48.96,1019.06,2020.99,2442.80,2439.59,2743.66,599.83,592.36,28.31,0000 0000 0000 0000 000000
2016-04-12 11:19:09,0.15,2.80,0.00,25.40,30.37,33.40,14.56,49.14,1019.05,2020.99,2440.92,2437.99,2741.85,600.00,592.59,28.36,0000 0000 0000 0000 000000
2016-04-12 11:24:11,0.18,2.81,0.00,25.34,30.36,33.39,14.56,49.19,1019.05,2020.99,2438.19,2436.21,2739.91,599.99,592.61,28.41,0000 0000 0000 0000 000000
2016-04-12 11:29:12,0.17,2.82,0.00,25.31,30.34,33.38,14.51,48.98,1019.00,2020.99,2435.46,2434.39,2737.89,599.81,592.62,28.46,0000 0000 0000 0000 000000
2016-04-12 11:34:13,0.18,2.83,0.00,25.28,30.32,33.36,14.42,49.00,1019.01,2021.03,2432.79,2432.59,2735.93,599.77,592.64,28.51,0000 0000 0000 0000 000000
2016-04-12 11:39:15,0.15,2.84,0.00,25.25,30.30,33.33,14.51,49.00,1019.01,2021.04,2430.38,2430.93,2733.94,600.06,593.02,28.56,0000 0000 0000 0000 000000
2016-04-12 11:44:16,0.23,2.85,0.00,25.23,30.27,33.32,14.53,49.02,1019.04,2021.06,2427.81,2428.84,2731.50,600.05,593.04,28.61,0000 0000 0000 0000 000000
2016-04-12 11:49:17,0.27,2.86,0.00,25.21,30.25,33.30,14.60,49.02,1019.02,2021.12,2424.00,2426.22,2728.62,599.91,593.05,28.66,0000 0000 0000 0000 000000
2016-04-12 11:54:19,0.29,2.87,0.00,25.17,30.23,33.29,14.55,48.96,1018.98,2021.36,2420.16,2423.57,2725.77,600.40,593.40,28.71,0000 0000 0000 0000 000000
2016-04-12 11:59:20,0.28,2.89,0.00,25.14,30.21,33.28,14.55,48.92,1019.00,2021.66,2416.45,2420.95,2722.79,599.86,593.10,28.76,0000 0000 0000 0000 000000
2016-04-12 12:04:22,0.30,2.90,0.00,25.11,30.18,33.26,14.48,48.91,1019.01,2021.87,2412.55,2418.21,2719.77,599.86,593.11,28.81,0000 0000 0000 0000 000000
2016-04-12 12:09:23,0.28,2.92,0.00,25.07,30.15,33.23,14.54,48.95,1018.99,2021.98,2408.53,2415.50,2716.72,600.10,593.38,28.86,0000 0000 0000 0000 000000
2016-04-12 12:14:24,0.26,2.93,0.00,25.04,30.13,33.22,14.50,48.92,1018.83,2021.99,2404.66,2412.88,2713.87,600.11,593.36,28.91,0000 0000 0000 0000 000000
2016-04-12 12:19:25,0.25,2.95,0.00,25.01,30.10,33.19,14.55,48.90,1018.66,2021.99,2401.01,2410.40,2711.15,600.01,593.30,28.96,0000 0000 0000 0000 000000
2016-04-12 12:24:27,0.19,2.95,0.00,24.98,30.08,33.17,14.48,48.90,1018.62,2021.99,2398.03,2408.31,2708.75,599.92,592.99,29.01,0000 0000 0000 0000 000000
2016-04-12 12:29:28,0.21,2.97,0.00,24.95,30.06,33.15,14.66,49.23,1018.60,2022.00,2395.49,2406.26,2706.43,600.52,593.80,29.06,0000 0000 0000 0000 000000
2016-04-12 12:34:29,0.29,2.98,0.00,24.91,30.03,33.12,14.54,49.02,1018.61,2022.01,2391.76,2403.49,2703.28,600.04,593.42,29.11,0000 0000 0000 0000 000000
2016-04-12 12:39:30,0.31,3.00,0.00,24.88,30.01,33.11,14.53,48.93,1018.61,2022.04,2387.33,2400.42,2699.93,600.35,593.77,29.16,0000 0000 0000 0000 000000
2016-04-12 12:44:32,0.30,3.01,0.00,24.86,29.98,33.07,14.52,48.98,1018.64,2022.12,2383.27,2397.41,2696.57,600.01,593.52,29.21,0000 0000 0000 0000 000000
2016-04-12 12:49:33,0.25,3.02,0.00,24.83,29.95,33.04,14.51,49.03,1018.73,2022.50,2379.87,2395.18,2694.18,599.80,593.40,29.26,0000 0000 0000 0000 000000
2016-04-12 12:54:34,0.18,3.03,0.00,24.79,29.92,33.04,14.58,49.00,1018.69,2022.83,2377.63,2393.64,2692.53,600.47,594.14,29.31,0000 0000 0000 0000 000000